| time (UTC) | temp F | wind direction | speed MPH | gust MPH | rain 1hr in | rain 24hr in | rain mn in | humidity % | barometer mb |
| 20260901190016 | 73 | 0.0 | 3.0 | 0.00 | 0.36 | 0.28 | 92 | 1016.9 | |
| 20260901183036 | 73 | 0.0 | 2.0 | 0.00 | 0.36 | 0.28 | 92 | 1016.6 | |
| 20260901180016 | 73 | 0.0 | 2.0 | 0.00 | 0.38 | 0.28 | 92 | 1016.5 | |
| 20260901173016 | 73 | 0.0 | 3.0 | 0.00 | 0.42 | 0.28 | 92 | 1016.6 | |
| 20260901170016 | 73 | 0.0 | 2.0 | 0.00 | 0.42 | 0.28 | 91 | 1016.4 | |
| 20260901163016 | 73 | 0.0 | 1.0 | 0.00 | 0.42 | 0.28 | 93 | 1016.7 | |
| 20260901160016 | 72 | 0.0 | 0.0 | 0.00 | 0.42 | 0.28 | 93 | 1016.7 | |
| 20260901153016 | 71 | 0.0 | 1.0 | 0.00 | 0.42 | 0.28 | 94 | 1017.1 | |
| 20260901150016 | 71 | 0.0 | 3.0 | 0.00 | 0.42 | 0.28 | 94 | 1017.1 | |
| 20260901143036 | 71 | 0.0 | 4.0 | 0.00 | 0.42 | 0.28 | 97 | 1016.7 | |
| 20260901140037 | 70 | 0.0 | 0.0 | 0.00 | 0.42 | 0.28 | 97 | 1016.9 | |
| 20260901133016 | 69 | 0.0 | 0.0 | 0.00 | 0.42 | 0.28 | 97 | 1016.9 | |
| 20260901130017 | 69 | 0.0 | 0.0 | 0.00 | 0.42 | 0.28 | 97 | 1017.3 | |
| 20260901123058 | 68 | 0.0 | 0.0 | 0.01 | 0.42 | 0.28 | 97 | 1017.4 | |
| 20260901120016 | 67 | 0.0 | 0.0 | 0.21 | 0.42 | 0.28 | 97 | 1017.1 | |
| 20260901113016 | 67 | 0.0 | 0.0 | 0.21 | 0.41 | 0.27 | 97 | 1017.6 | |
| 20260901110016 | 67 | 0.0 | 0.0 | 0.01 | 0.21 | 0.07 | 97 | 1017.2 | |
| 20260901103016 | 67 | 0.0 | 0.0 | 0.00 | 0.20 | 0.06 | 97 | 1017.4 | |
| 20260901100016 | 67 | 0.0 | 0.0 | 0.04 | 0.20 | 0.06 | 97 | 1017.3 | |
| 20260901093015 | 67 | 0.0 | 0.0 | 0.05 | 0.20 | 0.06 | 97 | 1017.3 | |
| 20260901090015 | 67 | 0.0 | 0.0 | 0.02 | 0.16 | 0.02 | 97 | 1017.7 | |
| 20260901083016 | 67 | 0.0 | 0.0 | 0.01 | 0.15 | 0.01 | 97 | 1017.4 | |
| 20260901080016 | 67 | 0.0 | 0.0 | 0.00 | 0.14 | 0.00 | 97 | 1017.6 | |
| 20260901073015 | 66 | 0.0 | 0.0 | 0.00 | 0.14 | 0.00 | 97 | 1017.8 | |
| 20260901070015 | 66 | 0.0 | 0.0 | 0.00 | 0.14 | 0.00 | 97 | 1017.8 | |
| 20260901063018 | 66 | 0.0 | 0.0 | 0.00 | 0.14 | 0.00 | 97 | 1018.2 | |
| 20260901060018 | 66 | 0.0 | 0.0 | 0.00 | 0.14 | 0.00 | 96 | 1018.2 | |
| 20260901053017 | 66 | 0.0 | 0.0 | 0.00 | 0.14 | 0.00 | 97 | 1018.7 | |
| 20260901050017 | 66 | 0.0 | 0.0 | 0.00 | 0.14 | 0.00 | 97 | 1018.8 | |
| 20260901043017 | 66 | 0.0 | 0.0 | 0.00 | 0.14 | 0.00 | 96 | 1018.7 | |
| 20260901040017 | 65 | 0.0 | 0.0 | 0.01 | 0.14 | 0.14 | 96 | 1018.9 | |
| 20260901033017 | 65 | 0.0 | 0.0 | 0.02 | 0.14 | 0.14 | 96 | 1018.9 | |
| 20260901030017 | 65 | 0.0 | 0.0 | 0.01 | 0.13 | 0.13 | 96 | 1019.0 | |
| 20260901023017 | 65 | 0.0 | 0.0 | 0.01 | 0.12 | 0.12 | 96 | 1019.2 | |
| 20260901020017 | 65 | 0.0 | 0.0 | 0.03 | 0.12 | 0.12 | 96 | 1019.3 | |
| 20260901013017 | 65 | 0.0 | 0.0 | 0.03 | 0.11 | 0.11 | 96 | 1019.3 | |
| 20260901010017 | 65 | 0.0 | 0.0 | 0.02 | 0.09 | 0.09 | 96 | 1019.2 | |
| 20260901003017 | 65 | 0.0 | 0.0 | 0.01 | 0.08 | 0.08 | 95 | 1019.0 | |
| 20260901000017 | 65 | 0.0 | 0.0 | 0.01 | 0.07 | 0.07 | 95 | 1019.0 | |
| 20260831233017 | 65 | 0.0 | 0.0 | 0.01 | 0.07 | 0.07 | 95 | 1019.1 | |
| 20260831230017 | 65 | 0.0 | 0.0 | 0.00 | 0.06 | 0.06 | 94 | 1019.5 | |
| 20260831223017 | 65 | 0.0 | 0.0 | 0.00 | 0.06 | 0.06 | 94 | 1019.8 | |
| 20260831220017 | 65 | 0.0 | 0.0 | 0.00 | 0.07 | 0.06 | 93 | 1019.8 | |
| 20260831213017 | 65 | 0.0 | 0.0 | 0.00 | 0.08 | 0.06 | 93 | 1019.8 | |
| 20260831210036 | 65 | 135 | 1.0 | 7.0 | 0.00 | 0.08 | 0.06 | 93 | 1019.8 |
| 20260831203018 | 65 | 135 | 1.0 | 7.0 | 0.00 | 0.08 | 0.06 | 92 | 1020.0 |
| 20260831200017 | 65 | 0.0 | 7.0 | 0.00 | 0.08 | 0.06 | 91 | 1020.1 | |
| 20260831193017 | 66 | 0.0 | 0.0 | 0.00 | 0.08 | 0.06 | 91 | 1020.5 |